West Palm Beach, FL

5:53 PM EST on November 15, 2019 (GMT -0500)
Palm Beach International

Weather History for KPBI - September, 2019

Change the Weather History Date:

Sunday, September 22, 2019

  Actual Average Record
Temperature  
Mean Temperature 82 °F 82 °F  
Max Temperature 86 °F 88 °F 94 °F (1942)
Min Temperature 78 °F 75 °F 61 °F (1897)
Degree Days  
Heating Degree Days 0 0  
Month to date heating degree days 0 0  
Since 1 July heating degree days 0 0  
Cooling Degree Days 17 16  
Month to date cooling degree days 407 373  
Year to date cooling degree days 3573 3079  
Growing Degree Days 31 (Base 50)    
Moisture  
Dew Point 68 °F    
Average Humidity 64    
Maximum Humidity 69    
Minimum Humidity 58    
Precipitation  
Precipitation 0.01 in 0.27 in 4.43 in (1948)
Month to date precipitation 1.36 6.26  
Year to date precipitation 45.32 46.98  
Snow  
Snow 0.00 in - - ()
Month to date snowfall 0.0  
Since 1 July snowfall 0.0  
Since 1 September snowfall 0.0  
Snow Depth 0.00 in    
Sea Level Pressure  
Sea Level Pressure 30.04 in    
Wind  
Wind Speed 17 mph (ENE)    
Max Wind Speed 24 mph    
Max Gust Speed 31 mph    
Visibility 10 miles    
Events Rain    
T = Trace of Precipitation, MM = Missing Value Source: NWS Daily Summary

Daily Weather History Graph

Daily Weather History Graph

Search for Another Location

Airport or City:

Astronomy

Sep. 22, 2019 Rise Set
Actual Time 7:08 AM EDT 7:17 PM EDT
Civil Twilight 6:45 AM EDT 7:40 PM EDT
Nautical Twilight 6:18 AM EDT 8:07 PM EDT
Astronomical Twilight 5:51 AM EDT 8:34 PM EDT
Moon 12:29 AM EDT (9/22) 2:36 PM EDT (9/22)
Length of Visible Light 12h 54m
Length of Day
12h 08m
Last Quarter, 44% of the Moon is Illuminated
Sep 22
Last Quarter
Sep 28
New
Oct 5
First Quarter
Oct 13
Full
Oct 21
Last Quarter

Hourly Weather History & Observations

Time (EDT) Temp. Heat Index Dew Point Humidity Pressure Visibility Wind Dir Wind Speed Gust Speed Precip Events Conditions
12:53 AM 80.1 °F 82.9 °F 69.1 °F 69% 30.06 in 8.0 mi ENE 19.6 mph 24.2 mph 0.00 in Rain Light Rain
1:53 AM 80.1 °F 83.2 °F 70.0 °F 71% 30.05 in 8.0 mi ENE 21.9 mph 31.1 mph 0.00 in Rain Light Rain
2:53 AM 79.0 °F - 68.0 °F 69% 30.04 in 10.0 mi ENE 15.0 mph - 0.01 in   Mostly Cloudy
3:53 AM 79.0 °F - 66.9 °F 66% 30.03 in 10.0 mi ENE 15.0 mph - N/A   Mostly Cloudy
4:53 AM 79.0 °F - 66.9 °F 66% 30.03 in 10.0 mi ENE 15.0 mph 25.3 mph N/A   Scattered Clouds
5:53 AM 80.1 °F 82.3 °F 66.9 °F 64% 30.02 in 10.0 mi ENE 16.1 mph 27.6 mph N/A   Scattered Clouds
6:53 AM 80.1 °F 82.7 °F 68.0 °F 67% 30.02 in 10.0 mi East 19.6 mph - N/A   Mostly Cloudy
7:53 AM 80.1 °F 82.7 °F 68.0 °F 67% 30.04 in 10.0 mi ENE 17.3 mph 25.3 mph N/A   Mostly Cloudy
8:53 AM 81.0 °F 84.1 °F 69.1 °F 67% 30.05 in 10.0 mi ENE 18.4 mph 24.2 mph N/A   Scattered Clouds
9:53 AM 82.0 °F 84.9 °F 68.0 °F 62% 30.07 in 10.0 mi ENE 18.4 mph 24.2 mph N/A   Scattered Clouds
10:53 AM 84.9 °F 88.8 °F 69.1 °F 59% 30.08 in 10.0 mi ENE 16.1 mph 28.8 mph N/A   Mostly Cloudy
11:53 AM 84.0 °F 87.0 °F 68.0 °F 58% 30.07 in 10.0 mi ENE 21.9 mph 31.1 mph N/A   Mostly Cloudy
12:53 PM 84.9 °F 88.8 °F 69.1 °F 59% 30.06 in 10.0 mi East 23.0 mph 28.8 mph N/A   Mostly Cloudy
1:53 PM 84.0 °F 87.8 °F 69.1 °F 61% 30.05 in 10.0 mi ENE 18.4 mph - N/A   Mostly Cloudy
2:53 PM 84.9 °F 88.8 °F 69.1 °F 59% 30.03 in 10.0 mi ENE 17.3 mph 29.9 mph N/A   Mostly Cloudy
3:53 PM 84.0 °F 87.8 °F 69.1 °F 61% 30.02 in 10.0 mi ENE 15.0 mph 27.6 mph N/A   Mostly Cloudy
4:53 PM 82.9 °F 86.5 °F 69.1 °F 63% 30.01 in 10.0 mi NE 20.7 mph 26.5 mph N/A   Mostly Cloudy
5:53 PM 82.9 °F 86.5 °F 69.1 °F 63% 30.01 in 10.0 mi NE 18.4 mph - N/A   Mostly Cloudy
6:53 PM 81.0 °F 83.8 °F 68.0 °F 65% 30.01 in 10.0 mi ENE 16.1 mph 26.5 mph N/A   Mostly Cloudy
7:53 PM 81.0 °F 83.3 °F 66.9 °F 62% 30.01 in 10.0 mi ENE 16.1 mph - N/A   Mostly Cloudy
8:53 PM 81.0 °F 83.3 °F 66.9 °F 62% 30.03 in 10.0 mi NE 15.0 mph 20.7 mph N/A   Mostly Cloudy
9:53 PM 80.1 °F 82.1 °F 66.0 °F 62% 30.04 in 10.0 mi ENE 12.7 mph - N/A   Scattered Clouds
10:53 PM 80.1 °F 81.7 °F 64.0 °F 58% 30.04 in 10.0 mi ENE 11.5 mph 19.6 mph N/A   Scattered Clouds
11:53 PM 80.1 °F 82.1 °F 66.0 °F 62% 30.04 in 10.0 mi ENE 11.5 mph - N/A   Scattered Clouds